Dewpoint
65 59 56 59 54 55 53 52 39 44 41 31 30 24 20 26 27 21 18 16 15 20 26 29 29 34 31 33 31 32 37 39 45 39 37 50 51 52 54 56 57 55 57 58 58 59 60 63 62 62 63 63 64 65 65 65 65 65 66 66 67 67 67 67 68 68 68 68 68 68 67 67 67 68 68 68 68 68 67 67 67 68 69 70 70 70 70 70 70 70 70 70 70 70 70 70 70
61 56 53 56 56 57 50 49 43 35 35 26 24 22 23 23 20 18 12 22 29 23 29 27 27 32 34 33 30 29 38 38 39 44 47 49 49 50 53 55 55 54 56 57 57 58 59 61 62 61 62 63 64 64 63 64 64 65 65 65 65 65 66 66 66 66 67 67 67 66 66 66 66 66 66 67 67 66 66 66 66 67 67 68 70 70 70 70 70 70 70 69 70 69 70 70 70
59 55 53 54 53 54 50 46 37 34 33 25 23 24 25 17 17 19 20 20 26 27 28 29 30 30 32 33 30 29 37 41 41 42 43 47 44 45 52 55 55 55 56 56 57 58 59 61 62 61 62 61 62 62 63 64 65 64 64 64 64 64 65 65 65 65 65 65 65 65 64 64 64 64 64 65 65 65 64 64 64 65 66 67 68 68 69 69 70 70 70 70 70 69 68 68 68
58 58 55 56 52 50 45 41 40 32 28 23 24 25 22 19 21 28 28 28 27 27 29 29 28 33 32 29 28 30 36 39 41 43 42 43 46 48 50 52 53 52 54 56 56 57 58 61 61 62 62 62 62 62 62 63 63 63 63 63 63 63 63 63 64 64 64 64 63 63 63 62 63 63 63 63 63 63 63 63 63 64 64 65 65 66 67 68 69 69 69 68 68 66 66 66 66
56 58 57 54 53 50 45 41 37 35 29 24 21 24 18 22 26 28 28 27 27 26 26 27 27 34 32 33 33 31 40 42 41 43 43 46 47 47 49 52 49 49 50 54 55 56 58 61 60 61 61 61 61 61 61 61 62 62 61 61 61 61 61 62 62 62 62 62 61 61 61 61 61 61 62 62 62 62 61 62 62 62 62 63 63 64 65 66 67 67 67 67 66 64 63 63 63
53 54 59 56 50 46 45 37 33 29 27 22 18 20 17 18 25 28 27 27 27 27 28 26 30 29 30 31 34 36 43 40 43 44 44 43 46 48 48 51 44 46 50 54 55 55 57 60 59 60 60 60 60 60 59 59 60 60 60 60 59 59 60 60 60 60 60 60 60 59 59 59 59 59 60 60 60 60 60 60 60 60 60 60 60 61 63 64 65 64 64 64 63 63 62 62 61
55 51 51 52 50 45 38 33 29 25 26 23 23 15 18 22 27 27 27 26 29 28 29 28 28 29 27 32 33 39 44 48 41 49 46 46 46 45 46 42 43 46 50 53 54 55 57 58 58 59 59 59 59 59 59 59 59 59 59 58 58 58 58 58 59 58 59 59 59 58 57 57 57 57 57 58 58 58 58 58 58 58 58 58 58 58 60 61 61 61 61 61 61 60 60 59 59
55 53 48 42 41 35 32 26 23 19 25 25 20 21 22 23 26 26 25 22 25 24 27 29 29 29 30 31 30 39 43 45 47 45 43 40 44 45 45 39 41 43 47 50 53 54 58 58 58 58 58 58 58 58 58 58 58 58 58 57 57 57 57 57 58 58 57 57 57 57 56 56 57 56 56 57 57 57 57 56 56 56 56 56 56 57 57 57 57 58 58 57 58 57 57 56 56
51 50 52 44 38 41 33 28 25 21 25 23 18 31 36 23 24 23 24 25 26 24 26 26 28 22 29 29 30 40 42 46 42 44 41 41 41 41 37 37 36 44 47 48 51 53 54 56 57 57 57 58 58 58 57 57 57 57 57 57 57 56 56 56 56 56 56 56 56 56 55 55 54 56 56 56 56 56 56 55 55 56 56 56 57 56 57 57 57 57 57 56 56 55 56 55 54
47 46 42 39 38 31 31 29 26 24 21 23 19 20 23 23 22 22 22 20 25 24 26 27 26 23 28 25 34 39 41 41 41 41 39 40 38 37 34 39 41 43 44 46 49 50 52 55 55 56 56 57 57 57 57 56 56 56 57 56 56 56 55 55 55 55 55 55 55 55 55 54 53 55 55 55 55 56 56 55 55 55 56 54 56 56 56 56 56 56 55 56 55 54 54 53 53
42 45 44 40 37 31 28 20 26 31 24 23 19 21 21 22 23 21 23 20 24 23 26 26 26 25 24 24 39 46 41 38 37 37 38 37 38 34 29 38 40 40 41 45 46 48 49 51 54 54 55 55 55 55 55 55 55 55 55 55 55 55 54 54 54 53 53 54 54 54 54 53 53 53 53 54 54 54 55 54 53 53 54 54 53 54 54 54 54 54 54 54 54 54 54 53 54
41 41 43 36 28 27 24 27 26 26 26 26 22 20 21 24 27 21 20 20 22 24 26 26 28 26 24 24 41 41 37 37 37 37 37 38 32 35 33 32 41 41 43 43 44 44 46 48 49 53 53 53 53 54 54 54 53 53 53 54 54 53 53 53 52 51 51 51 51 51 51 51 52 51 49 51 51 52 53 53 51 51 52 52 52 52 52 53 54 54 54 54 53 54 54 54 54
42 43 37 34 31 26 26 27 26 26 25 22 23 20 22 23 21 21 21 20 22 22 26 25 28 27 29 25 39 38 36 37 37 36 35 30 32 34 36 33 38 39 41 41 39 41 45 43 47 48 50 52 51 51 51 51 51 52 51 51 52 52 51 51 50 50 49 49 49 48 47 48 48 48 48 47 49 50 50 52 51 50 50 51 52 52 52 52 53 53 53 53 53 54 53 53 53
43 43 39 35 34 27 27 28 26 24 22 22 19 21 24 23 22 22 21 21 20 22 27 27 27 27 24 31 35 37 36 37 34 35 32 31 31 31 35 34 40 38 42 40 37 38 37 39 42 45 46 45 46 48 49 49 50 50 49 49 49 48 48 48 48 47 46 46 46 46 45 45 45 46 46 46 45 45 47 49 49 49 49 50 51 50 50 50 51 51 51 51 51 52 52 51 51
42 41 36 36 26 24 24 23 25 27 24 25 23 23 24 24 26 26 21 21 22 28 29 27 33 24 18 22 32 35 36 36 34 34 35 32 33 31 38 38 40 40 36 33 34 34 33 34 37 42 44 43 43 43 44 47 47 48 48 48 47 46 46 44 44 44 43 42 42 43 44 44 42 42 43 43 44 42 42 43 47 47 47 47 49 49 48 47 49 49 49 48 49 50 48 48 48
45 41 36 35 26 27 26 28 27 27 25 22 22 23 22 23 25 24 27 24 34 34 28 26 28 24 27 26 38 35 36 34 35 34 32 33 36 37 37 36 31 34 35 34 32 35 33 36 37 39 40 41 40 40 42 43 46 46 46 45 45 44 44 43 42 41 40 40 40 41 44 47 45 44 43 43 41 42 41 42 43 44 44 43 46 46 45 44 47 46 46 46 48 46 44 45 47
45 43 35 32 26 26 26 28 25 25 29 26 22 22 19 20 25 25 23 24 24 27 27 27 26 29 27 31 39 35 33 35 36 31 33 31 32 32 34 32 30 31 39 34 32 33 35 34 35 37 37 39 39 38 38 40 43 43 43 43 43 41 41 41 40 42 46 43 44 47 46 40 36 38 38 40 46 46 46 43 41 42 43 42 44 44 43 43 45 44 44 45 45 42 41 42 47
45 38 31 27 25 23 28 26 23 23 23 19 20 20 20 18 23 24 24 23 23 23 26 27 26 27 25 27 34 34 32 31 30 30 31 32 32 30 29 28 27 27 32 31 33 33 33 35 35 35 37 39 40 42 42 42 43 43 40 41 41 42 42 45 42 41 45 41 45 39 37 37 35 35 36 41 39 42 43 46 44 40 42 40 41 41 41 42 43 43 43 43 41 39 40 38 39
40 35 31 26 28 26 21 20 18 17 20 19 21 19 20 18 21 22 21 20 21 21 21 24 23 25 25 28 34 31 30 30 29 29 30 32 31 29 29 28 23 26 30 30 31 31 32 33 33 34 36 37 39 40 42 41 39 39 39 38 41 43 42 42 41 41 40 40 39 36 37 37 37 37 36 41 43 46 41 43 44 36 38 37 38 38 37 40 40 39 40 40 38 38 35 35 34
33 34 29 28 31 23 22 20 21 20 19 18 17 20 19 19 20 21 22 18 20 20 20 21 22 23 25 27 32 29 29 29 30 29 29 30 29 26 26 27 23 24 28 28 29 33 31 32 32 34 35 36 37 38 40 36 36 36 36 38 38 38 39 41 40 40 40 39 39 35 36 37 36 33 44 43 41 35 34 39 42 40 39 39 36 38 38 39 38 38 37 37 40 36 33 33 33
33 28 27 28 25 25 20 20 20 19 21 21 18 19 21 21 20 20 20 18 18 18 19 20 20 22 25 26 32 30 29 29 30 29 29 29 29 27 24 24 23 24 27 28 31 30 29 30 31 33 35 35 35 35 36 33 34 35 36 36 36 36 37 37 37 39 39 38 38 35 37 36 37 34 35 34 32 33 31 31 31 30 31 31 40 30 29 32 31 32 31 34 29 31 32 32 32
38 27 27 25 22 22 21 19 21 22 23 21 19 17 19 21 20 19 19 18 18 18 19 19 20 22 23 25 31 30 28 29 28 28 27 28 29 26 23 25 24 24 27 25 28 27 29 28 31 32 33 33 35 33 34 35 36 34 34 35 35 35 39 36 36 36 36 37 36 37 34 35 33 33 35 34 34 31 32 30 30 30 30 31 30 28 29 28 28 28 27 28 27 28 28 29 30
25 24 24 24 21 19 22 21 27 20 20 19 19 19 20 19 20 20 19 18 18 21 23 22 23 22 21 25 29 31 29 28 27 28 27 27 28 27 23 21 22 23 27 25 26 24 27 27 30 32 32 34 35 32 34 33 35 35 34 34 34 34 36 36 34 33 35 36 36 34 35 33 32 32 32 34 32 31 31 31 31 30 30 28 27 27 28 26 27 26 27 27 27 28 28 28 30
24 21 20 20 20 19 21 20 24 21 21 18 19 21 21 20 18 20 19 19 20 20 21 22 23 23 24 25 28 30 29 28 28 27 27 26 28 28 27 21 21 24 26 26 25 24 29 27 29 30 31 33 33 33 29 29 34 33 36 35 34 37 36 34 34 33 36 34 36 34 35 31 32 31 32 31 32 32 32 31 32 29 30 28 27 28 27 26 25 26 27 27 27 27 27 28 28
22 21 21 21 25 21 23 20 21 20 19 19 21 20 19 19 19 19 18 19 19 20 20 21 21 22 24 24 26 29 30 30 29 29 30 27 30 31 32 28 23 26 25 26 26 23 26 29 28 26 29 31 32 30 25 29 32 32 30 32 31 33 34 33 32 34 32 32 34 35 36 33 31 30 32 31 32 31 32 31 31 29 30 27 27 27 27 26 26 26 26 26 26 26 26 26 28
22 20 20 19 19 20 20 18 20 21 21 21 20 19 19 19 22 19 19 19 20 21 20 20 21 23 23 23 25 27 29 30 31 29 28 31 31 29 32 27 23 22 25 26 26 23 25 26 26 24 27 29 30 28 27 29 31 30 30 33 29 36 33 32 32 32 31 32 33 34 34 32 31 30 31 31 31 31 31 30 31 30 30 28 26 26 28 27 27 27 27 27 27 27 27 26 28
21 21 20 19 18 18 19 18 18 20 20 20 19 19 19 19 21 17 19 20 20 20 20 20 20 20 20 22 25 26 28 29 29 30 30 31 30 29 30 31 25 21 27 26 25 24 26 25 26 24 26 31 28 27 28 27 30 31 33 31 28 32 31 32 33 31 32 31 32 34 33 31 32 31 32 31 30 30 30 31 31 31 30 27 26 27 28 29 28 27 27 28 27 27 27 27 26
20 20 19 18 18 18 18 18 18 19 18 20 20 19 19 21 26 18 18 21 22 20 20 20 21 21 20 20 21 27 26 30 29 31 30 29 30 28 28 29 27 23 27 26 25 25 24 25 24 22 24 28 27 26 30 28 28 30 32 29 30 31 31 30 31 31 33 32 34 34 32 31 32 32 33 32 30 30 30 30 30 30 29 26 26 27 29 29 29 27 29 30 28 27 26 25 27
20 19 17 17 18 17 17 17 17 19 18 20 21 20 18 18 19 20 20 20 20 19 19 20 20 21 23 22 21 23 24 25 29 29 30 29 29 28 28 29 28 24 26 27 25 27 23 23 22 22 23 28 24 24 27 28 29 31 30 30 31 34 31 30 29 30 30 32 34 34 32 31 30 31 32 31 30 30 30 30 30 30 27 26 27 29 31 28 26 26 27 29 26 26 25 25 28
21 19 18 18 18 16 17 17 17 18 18 20 18 14 12 14 18 18 19 20 19 19 19 19 22 21 21 22 21 22 23 25 26 28 28 29 28 28 28 28 29 25 25 27 26 25 25 27 27 25 24 26 25 25 27 27 29 28 30 30 32 30 29 29 30 29 30 31 32 33 33 31 30 30 31 30 28 28 29 29 29 28 27 28 28 29 27 26 25 27 27 25 29 27 23 23 23
19 19 19 19 19 18 18 17 16 17 21 19 18 16 11 11 14 18 19 20 19 18 18 19 21 22 21 22 22 23 22 24 25 26 29 30 28 28 28 27 28 26 27 26 26 25 25 25 26 21 29 26 27 28 28 27 28 28 28 28 28 30 27 28 28 28 28 29 31 32 32 32 31 31 30 29 28 28 27 28 28 27 28 29 27 27 27 26 25 26 26 25 25 24 23 24 24
18 18 19 23 19 19 19 21 17 16 21 18 17 19 14 12 12 14 17 20 19 18 18 18 20 20 20 21 21 22 23 23 26 26 28 28 28 27 28 27 27 26 25 26 27 26 23 23 25 25 28 26 26 28 27 28 27 27 27 31 26 31 27 26 27 27 27 27 30 30 32 31 31 30 31 29 29 28 27 27 26 27 28 27 28 28 28 25 25 27 27 26 24 23 25 22 22
19 18 24 22 23 20 19 19 18 18 19 19 16 14 12 13 16 20 21 20 18 18 18 18 18 19 19 19 21 21 23 22 26 26 27 29 28 26 26 26 26 26 25 26 26 25 23 23 26 25 26 26 25 27 28 27 26 26 26 26 28 30 25 26 26 26 26 25 28 30 31 30 31 31 30 29 27 28 27 26 26 28 28 27 27 27 27 28 25 29 27 29 25 23 22 21 21
23 23 19 24 22 20 18 20 20 25 18 17 17 14 12 11 13 18 22 21 18 18 17 17 17 18 18 20 20 22 22 22 22 24 25 28 28 26 25 30 27 26 25 26 27 24 22 25 25 25 26 25 25 27 27 27 27 27 26 28 30 28 27 26 26 26 26 26 26 29 30 30 31 31 30 29 28 28 27 26 27 27 27 26 26 27 26 26 25 26 25 25 25 24 22 21 20
22 20 19 13 14 18 19 17 17 19 19 17 17 17 16 16 15 14 14 20 19 18 17 16 15 15 17 18 19 21 23 23 22 23 26 27 29 28 25 27 26 26 24 24 26 24 24 26 27 28 27 25 26 27 29 27 26 26 26 27 26 27 27 26 25 25 27 25 25 30 30 28 31 30 30 30 28 26 26 26 26 27 26 27 26 26 26 26 28 26 23 23 25 24 22 22 22
14 13 13 16 17 16 14 14 20 19 19 18 16 16 16 16 16 16 16 16 16 17 18 17 16 17 17 17 19 20 23 22 23 25 29 27 29 28 25 26 27 25 23 23 26 25 25 26 26 28 27 25 27 27 28 26 25 26 25 26 27 28 26 27 25 25 25 25 29 29 29 28 29 29 29 29 27 27 26 25 25 26 26 26 26 25 25 24 25 24 24 24 23 24 25 23 22
16 20 22 17 17 17 16 15 17 19 18 17 16 16 15 15 15 15 15 15 16 16 16 17 18 18 18 18 19 20 20 21 31 30 30 28 30 29 26 26 26 24 22 22 25 24 27 26 27 26 26 25 26 27 26 24 24 24 26 25 24 26 25 25 26 26 24 26 29 28 29 28 28 28 29 28 27 29 26 25 26 26 26 25 25 25 25 25 25 25 25 25 25 22 20 21 20
17 20 21 17 23 17 16 15 17 16 17 17 16 17 17 16 16 16 16 16 15 15 15 15 15 15 16 18 20 21 21 35 35 31 29 30 29 31 27 26 27 23 21 22 25 24 26 26 25 26 26 25 25 26 26 24 24 23 24 24 23 24 24 25 24 24 25 30 28 28 28 28 29 28 28 27 27 26 25 25 24 24 24 24 25 25 24 29 25 26 26 24 24 22 20 20 21
23 21 22 22 18 21 19 18 17 18 19 16 17 16 17 18 18 18 17 16 16 16 16 16 15 16 17 18 19 21 27 33 29 27 30 28 31 30 26 26 25 22 21 22 24 24 25 25 25 25 25 24 25 26 26 24 24 24 23 23 23 23 25 25 24 25 26 27 27 28 28 28 29 28 27 28 26 26 25 24 24 24 24 24 23 23 24 24 24 24 24 23 22 22 22 23 22
22 21 21 18 20 22 17 21 20 16 17 19 19 19 19 19 19 19 19 19 18 20 20 20 21 19 19 18 19 24 29 30 26 26 27 27 29 28 25 25 24 23 22 21 23 23 24 25 24 24 24 23 24 26 26 24 23 24 25 24 24 23 23 27 27 26 26 26 26 28 27 27 28 27 28 28 27 26 25 24 23 23 23 24 25 23 22 23 23 24 24 25 23 19 20 20 23
25 25 21 18 20 20 20 18 19 18 17 21 19 20 19 20 19 19 19 20 20 19 20 20 22 26 25 29 32 34 30 29 27 27 27 26 27 26 24 24 24 23 22 20 22 23 21 24 24 24 24 23 23 27 25 24 25 26 28 27 28 26 26 25 25 25 26 26 27 27 26 27 27 27 27 27 27 26 26 25 24 23 23 24 23 22 22 22 23 23 22 22 22 21 20 20 21
19 29 24 20 18 16 17 21 24 26 25 21 26 16 12 18 20 19 18 19 19 19 19 18 19 20 22 23 26 33 37 31 28 26 26 26 26 26 24 24 23 23 22 21 21 24 22 24 24 24 23 23 23 25 23 24 25 25 25 24 23 23 23 23 23 23 24 25 24 26 26 26 27 26 26 27 26 26 25 25 25 23 23 24 25 23 22 22 22 21 21 22 22 23 20 19 19
20 19 27 23 20 23 26 27 28 25 23 21 22 17 14 17 16 19 21 18 18 18 21 20 20 21 22 24 26 30 34 31 30 28 27 26 27 26 24 23 23 23 22 23 22 22 22 23 24 24 23 22 24 23 23 25 25 25 24 22 22 21 21 23 22 23 24 25 25 25 26 26 26 26 26 25 26 25 24 25 25 25 24 23 25 22 21 21 21 21 23 22 22 25 22 19 18
18 33 36 30 29 30 32 32 29 26 27 29 26 25 18 16 16 17 17 16 16 17 18 21 21 21 22 23 22 28 33 30 31 29 27 26 26 26 24 23 22 23 23 23 22 23 22 22 23 23 23 23 23 23 23 25 24 24 24 23 22 20 18 19 20 21 24 24 23 24 25 25 25 26 25 25 24 25 24 24 24 24 24 23 23 22 22 22 22 23 23 22 22 22 21 19 19
27 32 33 32 31 31 31 29 28 27 23 22 23 27 20 17 17 16 15 13 11 11 12 14 15 16 17 21 22 27 32 31 31 31 28 26 26 26 25 24 23 23 24 23 22 22 22 23 23 23 23 23 23 23 23 25 25 23 23 21 20 20 17 21 21 25 24 24 23 23 23 24 24 25 25 25 24 24 25 23 23 23 23 22 24 23 22 21 20 20 20 21 20 21 21 21 20
35 33 34 33 32 29 28 24 24 23 20 19 22 25 17 14 23 16 16 14 13 12 11 10 10 11 13 21 22 26 32 32 32 31 28 27 26 26 26 25 24 24 24 26 23 23 23 23 23 23 22 22 23 24 24 24 24 24 22 21 18 20 21 24 22 22 22 22 22 22 22 22 23 24 23 24 24 23 23 23 22 21 22 22 24 22 22 21 21 21 22 21 21 21 21 20 19
35 32 31 29 27 25 23 24 21 21 18 19 22 25 19 14 15 19 18 18 14 12 10 9 10 14 16 22 24 32 32 33 33 31 29 27 26 26 26 25 24 24 25 24 24 23 22 23 22 22 22 22 23 24 24 23 22 22 21 20 19 20 23 23 22 21 22 21 21 22 21 21 21 22 22 22 23 23 22 23 21 21 21 23 23 21 20 20 20 20 21 22 21 21 20 19 20
34 27 25 25 26 22 22 21 21 16 15 17 20 23 23 16 16 21 16 15 14 11 9 8 10 12 17 22 31 32 31 33 34 32 29 27 27 26 25 24 24 24 25 24 24 24 23 23 23 22 22 21 23 24 23 23 22 22 21 21 21 22 23 23 21 21 21 20 21 22 22 21 20 21 20 21 21 22 22 21 22 21 21 20 19 19 19 19 20 19 19 18 18 19 19 21 19
33 26 23 18 20 20 20 20 16 19 14 19 21 23 22 17 12 14 15 12 12 11 9 10 11 13 17 26 32 32 32 33 32 31 30 28 27 25 24 24 23 24 24 23 24 24 23 23 22 21 21 21 22 24 23 22 22 21 22 22 22 22 22 22 21 21 21 21 20 21 20 19 19 19 18 17 19 19 20 19 19 19 19 19 20 20 20 19 19 19 18 19 19 18 18 18 18
28 23 23 22 16 16 13 17 21 19 21 21 21 25 16 15 17 18 13 11 12 12 12 15 16 15 20 30 32 33 33 33 32 32 31 29 27 26 25 23 23 24 23 24 24 24 24 24 22 21 21 21 22 24 22 22 21 21 21 22 22 23 22 22 21 20 21 21 21 20 19 18 18 16 17 16 18 18 19 19 19 18 18 19 18 18 18 19 20 19 19 18 18 18 18 18 18
23 26 23 22 20 11 10 14 12 14 17 16 19 21 23 14 15 21 18 16 11 12 12 15 20 19 19 32 34 33 32 33 33 32 31 30 29 26 25 24 23 24 24 24 24 25 24 24 23 22 21 21 21 23 23 22 22 21 21 22 23 23 23 23 22 22 21 21 21 20 19 18 17 16 17 17 19 18 17 18 17 17 18 18 19 19 21 19 19 20 19 18 19 18 17 18 17
25 27 27 22 21 18 16 16 16 14 18 17 18 18 14 11 18 20 20 19 16 13 12 14 17 21 35 35 34 33 32 33 34 33 32 31 29 27 27 25 24 24 23 24 25 26 25 24 23 22 21 21 21 22 23 22 21 21 21 22 22 23 24 24 24 24 22 21 20 19 18 17 17 16 16 17 17 17 17 17 18 17 18 18 18 18 18 18 17 17 16 16 15 20 18 17 17
25 24 23 22 29 23 21 22 23 19 16 16 18 17 18 16 15 15 16 17 15 14 11 12 16 20 28 32 34 34 33 32 33 33 32 31 30 29 28 26 25 24 24 25 25 26 25 25 24 23 22 21 21 22 22 21 21 21 21 21 22 23 23 23 22 21 21 20 18 18 17 16 15 14 17 16 16 16 16 17 16 16 17 17 18 18 17 17 17 16 16 15 15 15 17 16 16
24 20 24 31 31 28 21 18 18 17 15 15 16 14 11 11 12 15 15 14 12 13 11 10 13 18 23 29 29 33 34 33 33 33 33 32 31 29 29 28 26 25 24 24 25 25 26 25 24 23 22 21 20 21 21 21 21 21 21 21 21 22 22 22 21 20 20 19 18 18 17 16 14 15 16 18 16 16 16 19 16 16 17 17 17 16 16 16 16 15 15 15 15 15 15 15 16
26 25 32 22 20 18 21 18 14 14 12 13 11 9 10 10 9 9 12 13 12 10 12 11 12 16 21 26 28 29 32 33 33 33 34 33 32 31 30 28 26 25 25 25 25 26 26 26 25 24 22 21 20 21 21 21 21 22 23 21 21 21 22 21 20 19 18 18 17 16 15 14 14 15 16 16 15 15 15 15 16 15 15 16 15 15 16 15 15 14 14 15 14 15 14 13 13
30 28 26 28 20 21 21 21 18 15 12 10 12 12 10 14 9 10 12 13 12 9 10 11 12 15 19 23 26 28 32 32 32 32 33 33 32 31 30 29 27 26 25 25 25 25 25 25 25 24 23 22 21 21 21 21 21 21 22 21 21 21 21 20 19 18 17 17 16 15 14 13 13 15 14 15 14 14 14 14 14 14 14 14 14 14 14 14 14 13 13 14 12 13 11 11 10
23 22 21 23 21 23 19 20 19 16 13 12 10 10 12 13 7 8 13 11 11 10 12 17 16 16 19 21 24 28 31 31 31 31 31 32 32 31 31 30 29 27 26 26 26 25 25 26 25 24 23 21 20 21 21 21 21 21 21 20 20 20 19 19 18 17 16 15 15 15 13 12 14 13 13 13 13 13 13 13 12 14 12 12 13 13 13 13 12 11 11 11 11 10 10 9 9
22 22 21 21 21 19 18 17 21 20 17 13 10 11 15 13 12 15 14 12 14 15 15 17 18 18 19 24 25 27 30 31 31 31 31 31 30 30 30 30 29 28 26 25 26 25 25 25 25 25 23 22 20 21 21 21 21 21 20 20 19 19 18 17 16 15 14 14 13 13 13 13 11 12 12 12 12 12 12 12 11 12 12 12 12 12 11 10 9 9 8 7 6 7 7 7 7